Location: Isle of Man Observatory
(54.1776°N, 4.6264°W)
Time: 06:40:58
(UTC+02:00)

Envisat - Pass Details

Date: 16 May 2026
Orbit: 761 x 763 km, 98.4° (Epoch: 11 June)

Event Time Altitude Azimuth Distance (km) Brightness Sun altitude
Rises 05:12:16 0° 15° (NNE) 3,239 7.5 -7.5°
Reaches altitude 10° 05:14:35 10° 16° (NNE) 2,308 6.7 -7.3°
Maximum altitude 05:19:41 86° 106° (ESE) 771 3.1 -6.8°
Drops below altitude 10° 05:24:44 10° 196° (SSW) 2,291 4.9 -6.2°
Enters shadow 05:26:10 - 196° (SSW) 2,861 5.4 -6.1°
